When you browse on this site, cookies collect data to enhance your experience and personalize the content and advertising you see.
Visit our Privacy Policy to learn more. By continuing to use the site, you agree to this use of cookies and data.
  • In Spain
  • List of Countries
  • For 7 days
  • Water Temperature
  • Weather Map
  • Weather Widgets
  • user-avatar
    Login

    Hourly Weather Ternopil

    Today, 30 March, Monday

    Time Temperature Precipitation Wind Pressure Humidity
    00:00 +7°C° 0 mm 3 mps 728 mmHg 70%
    01:00 +6°C° 0 mm 4 mps 728 mmHg 74%
    02:00 +5°C° 0 mm 4 mps 729 mmHg 77%
    03:00 +5°C° 0 mm 4 mps 729 mmHg 82%
    04:00 +3°C° 0 mm 5 mps 729 mmHg 86%
    05:00 +3°C° 0 mm 5 mps 729 mmHg 91%
    06:00 +3°C° 0.2 mm 5 mps 729 mmHg 91%
    07:00 +2°C° 0.2 mm 6 mps 730 mmHg 91%
    08:00 +1°C° 0.2 mm 6 mps 730 mmHg 92%
    09:00 0°C° 0.1 mm 7 mps 731 mmHg 90%
    10:00 -1°C° 0.1 mm 7 mps 731 mmHg 88%
    11:00 -2°C° 0.1 mm 7 mps 732 mmHg 86%
    12:00 -1°C° 0.1 mm 7 mps 732 mmHg 82%
    13:00 -1°C° 0.1 mm 7 mps 733 mmHg 79%
    14:00 -1°C° 0.1 mm 7 mps 733 mmHg 75%
    15:00 -1°C° 0 mm 7 mps 733 mmHg 71%
    16:00 -1°C° 0 mm 7 mps 733 mmHg 68%
    17:00 -1°C° 0 mm 6 mps 733 mmHg 65%
    18:00 -2°C° 0 mm 6 mps 734 mmHg 64%
    19:00 -2°C° 0 mm 5 mps 734 mmHg 63%
    20:00 -2°C° 0 mm 5 mps 735 mmHg 61%
    21:00 -3°C° 0 mm 4 mps 735 mmHg 60%
    22:00 -3°C° 0 mm 4 mps 735 mmHg 58%
    23:00 -3°C° 0 mm 4 mps 736 mmHg 57%

    Tomorrow, 31 March, Tuesday

    Time Temperature Precipitation Wind Pressure Humidity
    00:00 -4°C° 0 mm 4 mps 736 mmHg 56%
    01:00 -4°C° 0 mm 3 mps 736 mmHg 55%
    02:00 -4°C° 0 mm 3 mps 736 mmHg 55%
    03:00 -4°C° 0 mm 3 mps 736 mmHg 55%
    04:00 -4°C° 0 mm 3 mps 737 mmHg 56%
    05:00 -4°C° 0 mm 3 mps 737 mmHg 56%
    06:00 -4°C° 0 mm 3 mps 737 mmHg 50%
    07:00 -3°C° 0 mm 4 mps 737 mmHg 44%
    08:00 -2°C° 0 mm 4 mps 738 mmHg 38%
    09:00 -2°C° 0 mm 4 mps 738 mmHg 35%
    10:00 -1°C° 0 mm 4 mps 738 mmHg 32%
    11:00 0°C° 0 mm 4 mps 738 mmHg 30%
    12:00 +1°C° 0 mm 4 mps 738 mmHg 30%
    13:00 +1°C° 0 mm 4 mps 738 mmHg 30%
    14:00 +3°C° 0 mm 4 mps 738 mmHg 31%
    15:00 +3°C° 0 mm 4 mps 738 mmHg 31%
    16:00 +3°C° 0 mm 4 mps 738 mmHg 32%
    17:00 +3°C° 0 mm 3 mps 738 mmHg 32%
    18:00 +1°C° 0 mm 3 mps 738 mmHg 37%
    19:00 +1°C° 0 mm 2 mps 739 mmHg 41%
    20:00 +1°C° 0 mm 1 mps 739 mmHg 46%
    21:00 +1°C° 0 mm 1 mps 739 mmHg 45%
    22:00 +1°C° 0 mm 1 mps 739 mmHg 45%
    23:00 0°C° 0 mm 0 mps 739 mmHg 44%

    Day after tomorrow, 1 April, Wednesday

    Time Temperature Precipitation Wind Pressure Humidity
    00:00 +1°C° 0 mm 1 mps 739 mmHg 44%
    01:00 +1°C° 0 mm 1 mps 739 mmHg 44%
    02:00 -2°C° 0 mm 2 mps 739 mmHg 44%
    03:00 -2°C° 0 mm 2 mps 739 mmHg 45%
    04:00 -2°C° 0 mm 2 mps 739 mmHg 46%
    05:00 -2°C° 0 mm 2 mps 738 mmHg 47%
    06:00 -1°C° 0 mm 3 mps 738 mmHg 44%
    07:00 -1°C° 0 mm 3 mps 738 mmHg 41%
    08:00 -1°C° 0 mm 4 mps 738 mmHg 38%
    09:00 0°C° 0 mm 4 mps 738 mmHg 37%
    10:00 +3°C° 0 mm 4 mps 738 mmHg 35%
    11:00 +4°C° 0 mm 4 mps 737 mmHg 34%
    12:00 +3°C° 0 mm 5 mps 737 mmHg 34%
    13:00 +5°C° 0 mm 5 mps 737 mmHg 34%
    14:00 +5°C° 0 mm 5 mps 737 mmHg 34%
    15:00 +5°C° 0 mm 5 mps 736 mmHg 35%
    16:00 +5°C° 0 mm 4 mps 735 mmHg 37%
    17:00 +5°C° 0 mm 4 mps 734 mmHg 38%
    18:00 +4°C° 0 mm 3 mps 734 mmHg 43%
    19:00 +4°C° 0 mm 2 mps 735 mmHg 48%
    20:00 +2°C° 0 mm 2 mps 735 mmHg 53%
    21:00 +2°C° 0 mm 2 mps 734 mmHg 54%
    22:00 +2°C° 0 mm 2 mps 734 mmHg 55%
    23:00 0°C° 0 mm 3 mps 734 mmHg 56%

    2 April, Thursday

    Time Temperature Precipitation Wind Pressure Humidity
    00:00 0°C° 0 mm 3 mps 734 mmHg 57%
    01:00 -1°C° 0 mm 3 mps 734 mmHg 58%
    02:00 -1°C° 0 mm 3 mps 733 mmHg 59%
    03:00 -1°C° 0 mm 3 mps 733 mmHg 58%
    04:00 -1°C° 0 mm 3 mps 733 mmHg 58%
    05:00 -2°C° 0 mm 4 mps 732 mmHg 57%
    06:00 -1°C° 0 mm 4 mps 732 mmHg 52%
    07:00 0°C° 0 mm 5 mps 733 mmHg 48%
    08:00 +1°C° 0 mm 6 mps 733 mmHg 43%
    09:00 +2°C° 0 mm 6 mps 732 mmHg 41%
    10:00 +4°C° 0 mm 6 mps 732 mmHg 40%
    11:00 +5°C° 0 mm 6 mps 732 mmHg 38%
    12:00 +7°C° 0 mm 6 mps 732 mmHg 37%
    13:00 +7°C° 0 mm 6 mps 731 mmHg 36%
    14:00 +8°C° 0 mm 6 mps 731 mmHg 36%
    15:00 +8°C° 0 mm 6 mps 731 mmHg 36%
    16:00 +8°C° 0 mm 6 mps 730 mmHg 37%
    17:00 +8°C° 0 mm 6 mps 730 mmHg 38%
    18:00 +6°C° 0 mm 5 mps 730 mmHg 43%
    19:00 +5°C° 0 mm 4 mps 730 mmHg 49%
    20:00 +4°C° 0 mm 3 mps 730 mmHg 54%
    21:00 +3°C° 0 mm 4 mps 730 mmHg 54%
    22:00 +3°C° 0 mm 4 mps 730 mmHg 54%
    23:00 +1°C° 0 mm 4 mps 730 mmHg 54%

    3 April, Friday

    Time Temperature Precipitation Wind Pressure Humidity
    00:00 +1°C° 0 mm 4 mps 730 mmHg 56%
    01:00 +2°C° 0 mm 3 mps 730 mmHg 57%
    02:00 +1°C° 0 mm 3 mps 730 mmHg 59%
    03:00 +1°C° 0 mm 3 mps 730 mmHg 60%
    04:00 +1°C° 0 mm 3 mps 729 mmHg 61%
    05:00 0°C° 0 mm 3 mps 729 mmHg 62%
    06:00 +1°C° 0 mm 3 mps 729 mmHg 58%
    07:00 +1°C° 0 mm 4 mps 729 mmHg 54%
    08:00 +4°C° 0 mm 4 mps 729 mmHg 50%
    09:00 +5°C° 0 mm 5 mps 729 mmHg 47%
    10:00 +6°C° 0 mm 5 mps 729 mmHg 44%
    11:00 +8°C° 0 mm 6 mps 728 mmHg 42%
    12:00 +9°C° 0 mm 6 mps 728 mmHg 42%
    13:00 +9°C° 0 mm 6 mps 728 mmHg 42%
    14:00 +10°C° 0 mm 6 mps 728 mmHg 42%
    15:00 +10°C° 0 mm 6 mps 728 mmHg 44%
    16:00 +9°C° 0 mm 6 mps 727 mmHg 46%
    17:00 +9°C° 0 mm 7 mps 727 mmHg 49%
    18:00 +8°C° 0 mm 6 mps 727 mmHg 54%
    19:00 +7°C° 0 mm 5 mps 728 mmHg 58%
    20:00 +6°C° 0 mm 4 mps 728 mmHg 63%
    21:00 +5°C° 0 mm 4 mps 728 mmHg 69%
    22:00 +5°C° 0 mm 4 mps 729 mmHg 75%
    23:00 +5°C° 0 mm 4 mps 729 mmHg 81%

    4 April, Saturday

    Time Temperature Precipitation Wind Pressure Humidity
    00:00 +3°C° 0.2 mm 5 mps 730 mmHg 81%
    01:00 +2°C° 0.2 mm 5 mps 730 mmHg 80%
    02:00 +2°C° 0.2 mm 5 mps 730 mmHg 80%
    03:00 +1°C° 0 mm 5 mps 731 mmHg 79%
    04:00 +1°C° 0 mm 5 mps 731 mmHg 78%
    05:00 0°C° 0 mm 5 mps 732 mmHg 76%
    06:00 +1°C° 0 mm 5 mps 732 mmHg 74%
    07:00 +1°C° 0 mm 6 mps 733 mmHg 72%
    08:00 +1°C° 0 mm 6 mps 733 mmHg 69%
    09:00 +2°C° 0 mm 7 mps 734 mmHg 65%
    10:00 +2°C° 0 mm 7 mps 734 mmHg 61%
    11:00 +3°C° 0 mm 7 mps 735 mmHg 56%
    12:00 +4°C° 0.2 mm 7 mps 735 mmHg 53%
    13:00 +4°C° 0.2 mm 7 mps 735 mmHg 50%
    14:00 +5°C° 0.2 mm 6 mps 736 mmHg 47%
    15:00 +4°C° 0.3 mm 6 mps 736 mmHg 49%
    16:00 +4°C° 0.3 mm 6 mps 736 mmHg 51%
    17:00 +4°C° 0.3 mm 6 mps 736 mmHg 53%
    18:00 +3°C° 0.1 mm 5 mps 737 mmHg 57%
    19:00 +3°C° 0.1 mm 4 mps 738 mmHg 62%
    20:00 +2°C° 0.1 mm 3 mps 738 mmHg 67%
    21:00 +1°C° 0 mm 3 mps 739 mmHg 69%
    22:00 +1°C° 0 mm 3 mps 740 mmHg 72%
    23:00 +1°C° 0 mm 2 mps 741 mmHg 74%
    Show more